Regional Weather Roundup
Issued by NWS Northern Indiana

Home | Current Version | Previous Version | Graphics & Text | Print | Product List | Glossary On
Versions: 1 2 3 4 5 6 7 8 9 10 11 12 13 14 15 16 17 18 19 20 21 22 23 24 25 26 27 28 29 30 31 32 33 34 35 36 37 38 39 40 41 42 43 44 45 46 47 48 49 50
000
ASUS43 KIWX 231600
RWRIWX

KIWX WEATHER ROUNDUP
NATIONAL WEATHER SERVICE NORTHERN INDIANA
1200 PM EDT WED APR 23 2014

NOTE: "FAIR" INDICATES FEW OR NO CLOUDS BELOW 12,000 FEET WITH NO
SIGNIFICANT WEATHER AND/OR OBSTRUCTIONS TO VISIBILITY.

* THESE STATIONS ARE NOT UNDER NWS QUALITY CONTROL. THEY ALSO MAY NOT
  REPORT WEATHER SUCH AS PRECIPITATION OR FOG.

INZ001>027-231700-
NORTHERN INDIANA

CITY           SKY/WX    TMP DP  RH WIND       PRES   REMARKS
VALPARAISO     SUNNY     45  28  51 N10       30.16F
SOUTH BEND     SUNNY     48  29  47 E3        30.15S
ELKHART*       SUNNY     46  27  46 N7        30.14F
GOSHEN         SUNNY     47  30  51 N10       30.13F
MONTICELLO*    SUNNY     47  29  51 N3        30.14F
ANGOLA*        SUNNY     45  28  53 NE8       30.11S
FORT WAYNE     MOSUNNY   48  31  51 N7        30.12S
PERU/GRISSOM   SUNNY     47  31  53 VRB6      30.13S

$$
INZ028>050-231700-
CENTRAL INDIANA

CITY           SKY/WX    TMP DP  RH WIND       PRES   REMARKS
LAFAYETTE      SUNNY     47  30  51 VRB3      30.14F
KOKOMO*        SUNNY     48  28  46 N8        30.14S
MUNCIE*        SUNNY     46  32  58 N7        30.12S
INDIANAPOLIS   MOSUNNY   47  31  53 VRB3      30.13S

$$
MIZ043>046-050>051-056>058-064>065-071>073-077>080-231700-
SOUTHWEST LOWER MICHIGAN

CITY           SKY/WX    TMP DP  RH WIND       PRES   REMARKS
BATTLE CREEK   SUNNY     47  26  44 NE8       30.12F
BENTON HARBOR  SUNNY     42  32  67 NW9       30.16R
COLDWATER*     SUNNY     46  27  46 N10G16    30.11F
HILLSDALE*     SUNNY     47  27  44 NE9G16    30.09S
HOLLAND        SUNNY     48  24  39 NE7       30.16R
GRAND RAPIDS   MOSUNNY   49  23  36 VRB7      30.13F
KALAMAZOO      SUNNY     47  25  42 N9        30.13F
STURGIS*       SUNNY     45  28  53 N6        30.12S
THREE RIVERS*  FAIR      46  27  46 NE7       30.14S

$$
OHZ001>008-015>018-024>025-231700-
NORTHWEST OHIO

CITY           SKY/WX    TMP DP  RH WIND       PRES   REMARKS
DEFIANCE       SUNNY     48  30  49 N8        30.12R
FINDLAY        MOSUNNY   47  31  53 N6        30.10S
TOLEDO EXPRESS MOSUNNY   46  30  53 N14       30.10F
TOLEDO METCALF MOSUNNY   47  31  53 N9        30.11S
LIMA           MOSUNNY   46  33  60 VRB6      30.10S

$$
&&



USA.gov is the U.S. government's official web portal to all federal, state and local government web resources and services.